Track STARLINK-3333 now! 10-day predictions STARLINK-3333 is classified as:
1 50805U 22001C 22175.53945362 .00000217 00000-0 31775-4 0 9994 2 50805 53.2175 118.1313 0002688 63.3953 296.7315 15.08833972 26113